Time,TemperatureF,DewpointF,PressureIn,WindDirection,WindDirectionDegrees,WindSpeedMPH,WindSpeedGustMPH,Humidity,HourlyPrecipIn,Conditions,Clouds,dailyrainin,SoftwareType,DateUTC
2013-03-23 00:02:00,21.0,13.0,30.07,West,273,1.0,2.0,72,0.00,,,0.00,,2013-03-23 05:02:00,
2013-03-23 00:12:00,21.0,13.0,30.07,West,273,1.0,2.0,72,0.00,,,0.00,,2013-03-23 05:12:00,
2013-03-23 00:22:00,19.0,12.0,30.07,West,273,2.0,3.0,74,0.00,,,0.00,,2013-03-23 05:22:00,
2013-03-23 00:32:00,19.0,12.0,30.07,West,273,2.0,3.0,74,0.00,,,0.00,,2013-03-23 05:32:00,
2013-03-23 00:42:00,19.0,12.0,30.07,West,273,2.0,3.0,74,0.00,,,0.00,,2013-03-23 05:42:00,
2013-03-23 00:52:00,19.0,12.0,30.07,West,273,1.0,3.0,75,0.00,,,0.00,,2013-03-23 05:52:00,
2013-03-23 01:02:00,20.0,13.0,30.07,West,273,1.0,2.0,75,0.00,,,0.00,,2013-03-23 06:02:00,
2013-03-23 01:12:00,20.0,13.0,30.07,West,273,1.0,2.0,75,0.00,,,0.00,,2013-03-23 06:12:00,
2013-03-23 01:22:00,18.0,12.0,30.06,North,0,0.0,0.0,78,0.00,,,0.00,,2013-03-23 06:22:00,
2013-03-23 01:32:00,18.0,12.0,30.06,North,0,0.0,0.0,78,0.00,,,0.00,,2013-03-23 06:32:00,
2013-03-23 01:42:00,18.0,12.0,30.06,North,0,0.0,0.0,78,0.00,,,0.00,,2013-03-23 06:42:00,
2013-03-23 01:52:00,18.0,12.0,30.06,North,0,0.0,0.0,78,0.00,,,0.00,,2013-03-23 06:52:00,
2013-03-23 02:02:00,20.0,13.0,30.06,SW,216,2.0,4.0,75,0.00,,,0.00,,2013-03-23 07:02:00,
2013-03-23 02:12:00,20.0,13.0,30.06,SW,216,2.0,4.0,75,0.00,,,0.00,,2013-03-23 07:12:00,
2013-03-23 02:22:00,19.0,12.0,30.06,SW,215,0.0,2.0,74,0.00,,,0.00,,2013-03-23 07:22:00,
2013-03-23 02:32:00,19.0,12.0,30.05,North,0,0.0,0.0,74,0.00,,,0.00,,2013-03-23 07:32:00,
2013-03-23 02:42:00,19.0,12.0,30.05,North,0,0.0,0.0,74,0.00,,,0.00,,2013-03-23 07:42:00,
2013-03-23 02:52:00,19.0,13.0,30.05,North,0,0.0,0.0,76,0.00,,,0.00,,2013-03-23 07:52:00,
2013-03-23 03:02:00,18.0,12.0,30.05,North,0,0.0,0.0,77,0.00,,,0.00,,2013-03-23 08:02:00,
2013-03-23 03:12:00,18.0,12.0,30.05,North,0,0.0,0.0,77,0.00,,,0.00,,2013-03-23 08:12:00,
2013-03-23 03:22:00,18.0,12.0,30.05,North,0,0.0,0.0,78,0.00,,,0.00,,2013-03-23 08:22:00,
2013-03-23 03:32:00,18.0,13.0,30.06,SW,215,0.0,2.0,79,0.00,,,0.00,,2013-03-23 08:32:00,
2013-03-23 03:42:00,18.0,13.0,30.06,SW,215,0.0,2.0,79,0.00,,,0.00,,2013-03-23 08:42:00,
2013-03-23 03:52:00,17.0,12.0,30.04,SW,215,0.0,1.0,79,0.00,,,0.00,,2013-03-23 08:52:00,
2013-03-23 04:02:00,16.0,11.0,30.04,North,0,0.0,0.0,80,0.00,,,0.00,,2013-03-23 09:02:00,
2013-03-23 04:12:00,16.0,11.0,30.04,North,0,0.0,0.0,80,0.00,,,0.00,,2013-03-23 09:12:00,
2013-03-23 04:22:00,15.0,10.0,30.06,SW,215,1.0,4.0,80,0.00,,,0.00,,2013-03-23 09:22:00,
2013-03-23 04:33:00,17.0,12.0,30.07,WSW,246,4.0,6.0,81,0.00,,,0.00,,2013-03-23 09:33:00,
2013-03-23 04:42:00,17.0,12.0,30.07,WSW,246,4.0,6.0,81,0.00,,,0.00,,2013-03-23 09:42:00,
2013-03-23 04:53:00,19.0,13.0,30.08,WSW,252,5.0,8.0,77,0.00,,,0.00,,2013-03-23 09:53:00,
2013-03-23 05:03:00,19.0,13.0,30.08,WSW,251,5.0,7.0,76,0.00,,,0.00,,2013-03-23 10:03:00,
2013-03-23 05:13:00,19.0,13.0,30.08,WSW,251,5.0,7.0,76,0.00,,,0.00,,2013-03-23 10:13:00,
2013-03-23 05:23:00,20.0,13.0,30.09,West,262,3.0,5.0,73,0.00,,,0.00,,2013-03-23 10:23:00,
2013-03-23 05:33:00,20.0,13.0,30.10,WSW,258,4.0,9.0,73,0.00,,,0.00,,2013-03-23 10:33:00,
2013-03-23 05:42:00,20.0,13.0,30.10,WSW,258,4.0,9.0,73,0.00,,,0.00,,2013-03-23 10:42:00,
2013-03-23 05:52:00,20.0,12.0,30.09,West,262,4.0,8.0,72,0.00,,,0.00,,2013-03-23 10:52:00,
2013-03-23 06:03:00,20.0,13.0,30.09,WNW,284,2.0,4.0,73,0.00,,,0.00,,2013-03-23 11:03:00,
2013-03-23 06:12:00,20.0,13.0,30.09,WNW,284,2.0,4.0,73,0.00,,,0.00,,2013-03-23 11:12:00,
2013-03-23 06:22:00,20.0,12.0,30.09,WNW,284,1.0,2.0,72,0.00,,,0.00,,2013-03-23 11:22:00,
2013-03-23 06:32:00,20.0,13.0,30.10,WNW,284,0.0,2.0,73,0.00,,,0.00,,2013-03-23 11:32:00,
2013-03-23 06:42:00,20.0,13.0,30.10,WNW,284,0.0,2.0,73,0.00,,,0.00,,2013-03-23 11:42:00,
2013-03-23 06:51:00,19.0,12.0,30.10,West,281,2.0,4.0,74,0.00,,,0.00,,2013-03-23 11:51:00,
2013-03-23 07:02:00,19.0,12.0,30.11,West,271,2.0,4.0,74,0.00,,,0.00,,2013-03-23 12:02:00,
2013-03-23 07:13:00,19.0,12.0,30.11,West,271,2.0,4.0,74,0.00,,,0.00,,2013-03-23 12:13:00,
2013-03-23 07:22:00,19.0,12.0,30.11,West,271,0.0,3.0,74,0.00,,,0.00,,2013-03-23 12:22:00,
2013-03-23 07:33:00,19.0,12.0,30.11,West,271,1.0,3.0,74,0.00,,,0.00,,2013-03-23 12:33:00,
2013-03-23 07:42:00,19.0,12.0,30.11,West,271,1.0,3.0,74,0.00,,,0.00,,2013-03-23 12:42:00,
2013-03-23 07:52:00,19.0,12.0,30.11,West,271,2.0,3.0,75,0.00,,,0.00,,2013-03-23 12:52:00,
2013-03-23 08:02:00,18.0,11.0,30.11,West,271,1.0,3.0,75,0.00,,,0.00,,2013-03-23 13:02:00,
2013-03-23 08:12:00,18.0,11.0,30.11,West,271,1.0,3.0,75,0.00,,,0.00,,2013-03-23 13:12:00,
2013-03-23 08:23:00,18.0,11.0,30.12,West,272,3.0,4.0,75,0.00,,,0.00,,2013-03-23 13:23:00,
2013-03-23 08:32:00,18.0,11.0,30.11,West,273,3.0,5.0,75,0.00,,,0.00,,2013-03-23 13:32:00,
2013-03-23 08:42:00,18.0,11.0,30.11,West,273,3.0,5.0,75,0.00,,,0.00,,2013-03-23 13:42:00,
2013-03-23 08:52:00,18.0,11.0,30.11,West,275,3.0,4.0,74,0.00,,,0.00,,2013-03-23 13:52:00,
2013-03-23 09:03:00,19.0,11.0,30.11,North,355,1.0,3.0,72,0.00,,,0.00,,2013-03-23 14:03:00,
2013-03-23 09:12:00,19.0,11.0,30.11,North,355,1.0,3.0,72,0.00,,,0.00,,2013-03-23 14:12:00,
2013-03-23 09:22:00,21.0,13.0,30.11,North,355,1.0,5.0,70,0.00,,,0.00,,2013-03-23 14:22:00,
2013-03-23 09:32:00,21.0,13.0,30.11,North,6,4.0,7.0,70,0.00,,,0.00,,2013-03-23 14:32:00,
2013-03-23 09:42:00,21.0,13.0,30.11,North,6,4.0,7.0,70,0.00,,,0.00,,2013-03-23 14:42:00,
2013-03-23 09:52:00,21.0,12.0,30.12,North,6,1.0,3.0,69,0.00,,,0.00,,2013-03-23 14:52:00,
2013-03-23 10:03:00,23.0,13.0,30.12,North,6,0.0,3.0,66,0.00,,,0.00,,2013-03-23 15:03:00,
2013-03-23 10:12:00,23.0,13.0,30.12,North,6,0.0,3.0,66,0.00,,,0.00,,2013-03-23 15:12:00,
2013-03-23 10:22:00,23.0,14.0,30.13,North,6,0.0,1.0,67,0.00,,,0.00,,2013-03-23 15:22:00,
2013-03-23 10:33:00,25.0,14.0,30.12,North,6,0.0,2.0,63,0.00,,,0.00,,2013-03-23 15:33:00,
2013-03-23 10:43:00,25.0,14.0,30.12,North,6,0.0,2.0,63,0.00,,,0.00,,2013-03-23 15:43:00,
2013-03-23 10:52:00,26.0,14.0,30.12,North,5,3.0,5.0,61,0.00,,,0.00,,2013-03-23 15:52:00,
2013-03-23 11:03:00,27.0,15.0,30.11,NNE,23,2.0,4.0,61,0.00,,,0.00,,2013-03-23 16:03:00,
2013-03-23 11:12:00,27.0,15.0,30.11,NNE,23,2.0,4.0,61,0.00,,,0.00,,2013-03-23 16:12:00,
2013-03-23 11:23:00,28.0,16.0,30.12,ENE,58,1.0,4.0,59,0.00,,,0.00,,2013-03-23 16:23:00,
2013-03-23 11:32:00,29.0,16.0,30.12,ENE,59,1.0,3.0,58,0.00,,,0.00,,2013-03-23 16:32:00,
2013-03-23 11:43:00,29.0,16.0,30.12,ENE,59,1.0,3.0,58,0.00,,,0.00,,2013-03-23 16:43:00,
2013-03-23 11:53:00,30.0,18.0,30.12,ENE,60,0.0,1.0,60,0.00,,,0.00,,2013-03-23 16:53:00,
2013-03-23 12:02:00,31.0,17.0,30.12,ENE,60,1.0,4.0,56,0.00,,,0.00,,2013-03-23 17:02:00,
2013-03-23 12:12:00,31.0,17.0,30.12,ENE,60,1.0,4.0,56,0.00,,,0.00,,2013-03-23 17:12:00,
2013-03-23 12:22:00,31.0,17.0,30.12,SE,126,1.0,4.0,56,0.00,,,0.00,,2013-03-23 17:22:00,
2013-03-23 12:32:00,32.0,16.0,30.12,South,182,3.0,5.0,51,0.00,,,0.00,,2013-03-23 17:32:00,
2013-03-23 12:42:00,32.0,16.0,30.12,South,182,3.0,5.0,51,0.00,,,0.00,,2013-03-23 17:42:00,
2013-03-23 12:52:00,32.0,16.0,30.12,South,182,1.0,3.0,52,0.00,,,0.00,,2013-03-23 17:52:00,
2013-03-23 13:03:00,32.0,15.0,30.12,South,182,1.0,2.0,50,0.00,,,0.00,,2013-03-23 18:03:00,
2013-03-23 13:12:00,32.0,15.0,30.12,South,182,1.0,2.0,50,0.00,,,0.00,,2013-03-23 18:12:00,
2013-03-23 13:22:00,32.0,16.0,30.12,SSE,158,1.0,5.0,51,0.00,,,0.00,,2013-03-23 18:22:00,
2013-03-23 13:32:00,33.0,17.0,30.11,East,91,3.0,6.0,51,0.00,,,0.00,,2013-03-23 18:32:00,
2013-03-23 13:42:00,33.0,17.0,30.11,East,91,3.0,6.0,51,0.00,,,0.00,,2013-03-23 18:42:00,
2013-03-23 13:52:00,33.0,16.0,30.11,East,92,3.0,5.0,49,0.00,,,0.00,,2013-03-23 18:52:00,
2013-03-23 14:03:00,34.0,17.0,30.11,East,85,2.0,5.0,49,0.00,,,0.00,,2013-03-23 19:03:00,
2013-03-23 14:12:00,34.0,17.0,30.11,East,85,2.0,5.0,49,0.00,,,0.00,,2013-03-23 19:12:00,
2013-03-23 14:22:00,34.0,16.0,30.10,East,90,3.0,5.0,47,0.00,,,0.00,,2013-03-23 19:22:00,
2013-03-23 14:32:00,34.0,16.0,30.09,East,90,2.0,5.0,47,0.00,,,0.00,,2013-03-23 19:32:00,
2013-03-23 14:42:00,34.0,16.0,30.09,East,90,2.0,5.0,47,0.00,,,0.00,,2013-03-23 19:42:00,
2013-03-23 14:52:00,35.0,17.0,30.09,East,82,1.0,3.0,47,0.00,,,0.00,,2013-03-23 19:52:00,
2013-03-23 15:02:00,34.0,15.0,30.09,East,82,1.0,3.0,46,0.00,,,0.00,,2013-03-23 20:02:00,
2013-03-23 15:12:00,34.0,15.0,30.09,East,82,1.0,3.0,46,0.00,,,0.00,,2013-03-23 20:12:00,
2013-03-23 15:22:00,35.0,17.0,30.08,East,83,1.0,3.0,47,0.00,,,0.00,,2013-03-23 20:22:00,
2013-03-23 15:32:00,35.0,16.0,30.08,East,84,3.0,5.0,45,0.00,,,0.00,,2013-03-23 20:32:00,
2013-03-23 15:42:00,35.0,16.0,30.08,East,84,3.0,5.0,45,0.00,,,0.00,,2013-03-23 20:42:00,
2013-03-23 15:53:00,35.0,16.0,30.08,East,90,2.0,5.0,45,0.00,,,0.00,,2013-03-23 20:53:00,
2013-03-23 16:02:00,35.0,17.0,30.07,ENE,77,2.0,5.0,47,0.00,,,0.00,,2013-03-23 21:02:00,
2013-03-23 16:12:00,35.0,17.0,30.07,ENE,77,2.0,5.0,47,0.00,,,0.00,,2013-03-23 21:12:00,
2013-03-23 16:22:00,35.0,16.0,30.06,East,81,2.0,3.0,46,0.00,,,0.00,,2013-03-23 21:22:00,
2013-03-23 16:33:00,36.0,17.0,30.06,NNE,30,3.0,6.0,46,0.00,,,0.00,,2013-03-23 21:33:00,
2013-03-23 16:53:00,36.0,18.0,30.06,NNE,16,3.0,6.0,48,0.00,,,0.00,,2013-03-23 21:53:00,
2013-03-23 17:03:00,36.0,19.0,30.06,NNE,21,4.0,5.0,50,0.00,,,0.00,,2013-03-23 22:03:00,
2013-03-23 17:12:00,36.0,19.0,30.06,NNE,21,4.0,5.0,50,0.00,,,0.00,,2013-03-23 22:12:00,
2013-03-23 17:23:00,36.0,18.0,30.06,North,3,3.0,5.0,47,0.00,,,0.00,,2013-03-23 22:23:00,
2013-03-23 17:33:00,36.0,18.0,30.06,North,5,3.0,4.0,47,0.00,,,0.00,,2013-03-23 22:33:00,
2013-03-23 17:42:00,36.0,18.0,30.06,North,5,3.0,4.0,47,0.00,,,0.00,,2013-03-23 22:42:00,
2013-03-23 17:52:00,36.0,18.0,30.06,North,9,2.0,4.0,47,0.00,,,0.00,,2013-03-23 22:52:00,
2013-03-23 18:02:00,36.0,17.0,30.06,North,10,2.0,4.0,46,0.00,,,0.00,,2013-03-23 23:02:00,
2013-03-23 18:12:00,36.0,17.0,30.06,North,10,2.0,4.0,46,0.00,,,0.00,,2013-03-23 23:12:00,
2013-03-23 18:22:00,36.0,18.0,30.06,North,11,1.0,3.0,48,0.00,,,0.00,,2013-03-23 23:22:00,
2013-03-23 18:33:00,35.0,18.0,30.07,North,11,2.0,3.0,49,0.00,,,0.00,,2013-03-23 23:33:00,
2013-03-23 18:42:00,35.0,18.0,30.07,North,11,2.0,3.0,49,0.00,,,0.00,,2013-03-23 23:42:00,
2013-03-23 18:52:00,35.0,18.0,30.07,WSW,250,1.0,5.0,49,0.00,,,0.00,,2013-03-23 23:52:00,
2013-03-23 19:02:00,34.0,20.0,30.07,SSW,197,2.0,3.0,55,0.00,,,0.00,,2013-03-24 00:02:00,
2013-03-23 19:12:00,34.0,20.0,30.07,SSW,197,2.0,3.0,55,0.00,,,0.00,,2013-03-24 00:12:00,
2013-03-23 19:22:00,34.0,20.0,30.07,SSW,197,2.0,3.0,55,0.00,,,0.00,,2013-03-24 00:22:00,
2013-03-23 19:32:00,34.0,18.0,30.07,North,0,0.0,0.0,51,0.00,,,0.00,,2013-03-24 00:32:00,
2013-03-23 19:42:00,34.0,18.0,30.07,North,0,0.0,0.0,51,0.00,,,0.00,,2013-03-24 00:42:00,
2013-03-23 19:52:00,34.0,19.0,30.07,North,0,0.0,0.0,53,0.00,,,0.00,,2013-03-24 00:52:00,
2013-03-23 20:02:00,34.0,18.0,30.08,West,265,2.0,7.0,52,0.00,,,0.00,,2013-03-24 01:02:00,
2013-03-23 20:12:00,34.0,18.0,30.08,West,265,2.0,7.0,52,0.00,,,0.00,,2013-03-24 01:12:00,
2013-03-23 20:22:00,33.0,17.0,30.08,WNW,290,5.0,8.0,52,0.00,,,0.00,,2013-03-24 01:22:00,
2013-03-23 20:32:00,33.0,19.0,30.08,WNW,284,3.0,6.0,55,0.00,,,0.00,,2013-03-24 01:32:00,
2013-03-23 20:42:00,33.0,19.0,30.08,WNW,284,3.0,6.0,55,0.00,,,0.00,,2013-03-24 01:42:00,
2013-03-23 20:52:00,33.0,18.0,30.08,WNW,286,6.0,9.0,54,0.00,,,0.00,,2013-03-24 01:52:00,
2013-03-23 21:03:00,32.0,18.0,30.08,WNW,285,6.0,10.0,55,0.00,,,0.00,,2013-03-24 02:03:00,
2013-03-23 21:12:00,32.0,18.0,30.08,WNW,285,6.0,10.0,55,0.00,,,0.00,,2013-03-24 02:12:00,
2013-03-23 21:22:00,32.0,18.0,30.08,WNW,285,6.0,10.0,55,0.00,,,0.00,,2013-03-24 02:22:00,
2013-03-23 21:32:00,32.0,18.0,30.08,WNW,285,6.0,10.0,55,0.00,,,0.00,,2013-03-24 02:32:00,
2013-03-23 21:42:00,32.0,18.0,30.08,WNW,285,6.0,10.0,55,0.00,,,0.00,,2013-03-24 02:42:00,
2013-03-23 21:52:00,32.0,18.0,30.09,WNW,286,6.0,8.0,55,0.00,,,0.00,,2013-03-24 02:52:00,
2013-03-23 22:02:00,32.0,18.0,30.09,West,273,3.0,6.0,56,0.00,,,0.00,,2013-03-24 03:02:00,
2013-03-23 22:12:00,32.0,18.0,30.09,West,273,3.0,6.0,56,0.00,,,0.00,,2013-03-24 03:12:00,
2013-03-23 22:22:00,32.0,18.0,30.09,West,276,3.0,6.0,56,0.00,,,0.00,,2013-03-24 03:22:00,
2013-03-23 22:33:00,31.0,17.0,30.09,West,276,3.0,6.0,56,0.00,,,0.00,,2013-03-24 03:33:00,
2013-03-23 22:42:00,31.0,17.0,30.09,West,276,3.0,6.0,56,0.00,,,0.00,,2013-03-24 03:42:00,
2013-03-23 22:52:00,31.0,18.0,30.09,WNW,287,6.0,8.0,57,0.00,,,0.00,,2013-03-24 03:52:00,
2013-03-23 23:02:00,31.0,18.0,30.09,West,273,3.0,6.0,57,0.00,,,0.00,,2013-03-24 04:02:00,
2013-03-23 23:12:00,31.0,18.0,30.09,West,273,3.0,6.0,57,0.00,,,0.00,,2013-03-24 04:12:00,
2013-03-23 23:22:00,31.0,18.0,30.09,West,274,4.0,6.0,59,0.00,,,0.00,,2013-03-24 04:22:00,
2013-03-23 23:32:00,31.0,18.0,30.09,West,277,3.0,6.0,59,0.00,,,0.00,,2013-03-24 04:32:00,
2013-03-23 23:42:00,31.0,18.0,30.09,West,277,3.0,6.0,59,0.00,,,0.00,,2013-03-24 04:42:00,
2013-03-23 23:52:00,30.0,17.0,30.08,WNW,303,5.0,6.0,59,0.00,,,0.00,,2013-03-24 04:52:00,